This demonstration page uses our WeatherBlox Daily Observations layout. Learn more.

Left ArrowRight Arrow

Hourly Observations for June 21, 2016

Temp ( °F °C ) Dew Point ( °F °C ) Humidity (%) Winds ( mph kmh ) Pressure ( in mb ) Visibility ( mi km ) Precip ( " mm )
12:53 am 00:53 Clear 71 21.7 51 10.6 49 49 Calm 30.00 1016 10 16 0.00 0.00
1:53 am 01:53 Clear 69 20.6 50 10 51 51 NNW 3 6 30.00 1016 10 16 0.00 0.00
2:53 am 02:53 Clear 69 20.6 51 10.6 53 53 NNW 5 7 30.00 1016 10 16 0.00 0.00
3:53 am 03:53 Clear 66 18.9 52 11.1 61 61 NNW 3 6 30.00 1016 10 16 0.00 0.00
4:53 am 04:53 Clear 64 17.8 53 11.7 68 68 NNW 3 6 30.01 1016 10 16 0.00 0.00
5:53 am 05:53 Sunny 64 17.8 53 11.7 68 68 NW 5 7 30.01 1016 10 16 0.00 0.00
6:53 am 06:53 Sunny 70 21.1 53 11.7 55 55 N 5 7 30.01 1016 10 16 0.00 0.00
7:53 am 07:53 Sunny 75 23.9 54 12.2 48 48 NNW 5 7 30.02 1017 10 16 0.00 0.00
8:53 am 08:53 Sunny 80 26.7 50 10 35 35 N 12 19 30.02 1017 10 16 0.00 0.00
9:53 am 09:53 Sunny 85 29.4 50 10 30 30 N 10 17 30.01 1016 10 16 0.00 0.00
10:53 am 10:53 Sunny 87 30.6 50 10 28 28 N 9 15 30.00 1016 10 16 0.00 0.00
11:53 am 11:53 Sunny 91 32.8 50 10 25 25 N 9 15 29.98 1015 10 16 0.00 0.00
12:53 pm 12:53 Sunny 94 34.4 46 7.8 19 19 N 6 9 29.96 1014 10 16 0.00 0.00
1:53 pm 13:53 Sunny 95 35 46 7.8 19 19 undefined N/A 29.93 1014 10 16 0.00 0.00
2:53 pm 14:53 Sunny 97 36.1 43 6.1 16 16 undefined N/A 29.91 1013 10 16 0.00 0.00
3:53 pm 15:53 Sunny 97 36.1 42 5.6 15 15 Calm 29.88 1012 10 16 0.00 0.00
4:53 pm 16:53 Sunny 96 35.6 43 6.1 16 16 WSW 6 9 29.87 1012 10 16 0.00 0.00
5:53 pm 17:53 Sunny 97 36.1 43 6.1 16 16 S 6 9 29.85 1011 10 16 0.00 0.00
6:53 pm 18:53 Sunny 95 35 43 6.1 17 17 S 7 11 29.84 1010 10 16 0.00 0.00
7:53 pm 19:53 Sunny 93 33.9 49 9.4 22 22 SSW 6 9 29.84 1011 10 16 0.00 0.00
8:53 pm 20:53 Clear 87 30.6 54 12.2 32 32 Calm 29.84 1011 10 16 0.00 0.00
9:53 pm 21:53 Clear 81 27.2 60 15.6 49 49 Calm 29.85 1011 10 16 0.00 0.00
10:53 pm 22:53 Clear 79 26.1 54 12.2 42 42 NNE 3 6 29.87 1011 10 16 0.00 0.00
11:53 pm 23:53 Clear 74 23.3 57 13.9 56 56 N 3 6 29.87 1011 10 16 0.00 0.00

Powered by AerisWeather